Вернуться в каталог

CZ-6A DEB

АктивенSSO
NORAD 54511·DEBRIS·🇨🇳 China

Запущен Nov 11, 2022 с Taiyuan Satellite Launch Center

Loading…

Ближайшие Пролёты (ближайшие 24 часа)

TLE

СвежийSource: Space-Track

Эпоха: Sep 14, 2026, 08:55 UTC

1 54511U 22151JP  26257.37160812  .00000003  00000-0  31618-4 0  9993
2 54511  98.9180 224.0739 0129719 207.4672 151.9593 13.94940230195145

Отслеживайте CZ-6A DEB в реальном времени с AllMySat

Download on the App Store